Time,TemperatureF,DewpointF,PressureIn,WindDirection,WindDirectionDegrees,WindSpeedMPH,WindSpeedGustMPH,Humidity,HourlyPrecipIn,Conditions,Clouds,dailyrainin,SoftwareType,DateUTC
2013-03-10 00:05:00,27.9,27.7,30.28,NE,45,0.0,-999.0,99,-99.99,,,0.00,Acu-Link.com,2013-03-10 05:05:00,
2013-03-10 00:20:00,27.3,27.1,30.28,NNW,337,0.0,-999.0,99,-99.99,,,0.00,Acu-Link.com,2013-03-10 05:20:00,
2013-03-10 00:35:00,27.0,26.5,30.29,ENE,67,0.0,-999.0,98,-99.99,,,0.00,Acu-Link.com,2013-03-10 05:35:00,
2013-03-10 00:50:00,27.0,26.5,30.28,WNW,292,0.0,-999.0,98,-99.99,,,0.00,Acu-Link.com,2013-03-10 05:50:00,
2013-03-10 01:06:00,27.0,26.8,30.30,WNW,292,0.0,-999.0,99,-99.99,,,0.00,Acu-Link.com,2013-03-10 06:06:00,
2013-03-10 01:21:00,26.6,26.4,30.30,NNE,22,0.0,-999.0,99,-99.99,,,0.00,Acu-Link.com,2013-03-10 06:21:00,
2013-03-10 01:36:00,26.6,26.4,30.29,NNE,22,0.0,-999.0,99,-99.99,,,0.00,Acu-Link.com,2013-03-10 06:36:00,
2013-03-10 01:51:00,26.2,26.0,30.30,NNE,22,0.0,-999.0,99,-99.99,,,0.00,Acu-Link.com,2013-03-10 06:51:00,
2013-03-10 03:07:00,26.2,26.0,30.29,NNW,337,0.0,-999.0,99,-99.99,,,0.00,Acu-Link.com,2013-03-10 07:07:00,
2013-03-10 03:22:00,25.9,25.7,30.29,WNW,292,0.0,-999.0,99,-99.99,,,0.00,Acu-Link.com,2013-03-10 07:22:00,
2013-03-10 03:37:00,26.1,25.9,30.29,NW,315,0.0,-999.0,99,-99.99,,,0.00,Acu-Link.com,2013-03-10 07:37:00,
2013-03-10 03:53:00,25.9,25.7,30.29,NNE,22,0.0,-999.0,99,-99.99,,,0.00,Acu-Link.com,2013-03-10 07:53:00,
2013-03-10 04:08:00,25.7,25.5,30.28,NNW,337,0.0,-999.0,99,-99.99,,,0.00,Acu-Link.com,2013-03-10 08:08:00,
2013-03-10 04:23:00,25.7,25.5,30.29,NE,45,0.0,-999.0,99,-99.99,,,0.00,Acu-Link.com,2013-03-10 08:23:00,
2013-03-10 04:38:00,25.7,25.5,30.30,NNW,337,0.0,-999.0,99,-99.99,,,0.00,Acu-Link.com,2013-03-10 08:38:00,
2013-03-10 04:54:00,25.7,25.5,30.31,ESE,112,0.0,-999.0,99,-99.99,,,0.00,Acu-Link.com,2013-03-10 08:54:00,
2013-03-10 05:09:00,25.5,25.3,30.31,SE,135,0.0,-999.0,99,-99.99,,,0.00,Acu-Link.com,2013-03-10 09:09:00,
2013-03-10 05:24:00,25.0,24.8,30.31,NNE,22,0.0,-999.0,99,-99.99,,,0.00,Acu-Link.com,2013-03-10 09:24:00,
2013-03-10 05:40:00,24.8,24.6,30.31,North,0,0.0,-999.0,99,-99.99,,,0.00,Acu-Link.com,2013-03-10 09:40:00,
2013-03-10 05:55:00,25.2,25.0,30.31,West,270,0.0,-999.0,99,-99.99,,,0.00,Acu-Link.com,2013-03-10 09:55:00,
2013-03-10 06:10:00,25.0,24.8,30.31,NW,315,0.0,-999.0,99,-99.99,,,0.00,Acu-Link.com,2013-03-10 10:10:00,
2013-03-10 06:25:00,25.2,25.0,30.32,NW,315,0.0,-999.0,99,-99.99,,,0.00,Acu-Link.com,2013-03-10 10:25:00,
2013-03-10 06:41:00,25.2,25.0,30.33,SSE,157,0.0,-999.0,99,-99.99,,,0.00,Acu-Link.com,2013-03-10 10:41:00,
2013-03-10 06:56:00,24.6,24.4,30.33,WNW,292,0.0,-999.0,99,-99.99,,,0.00,Acu-Link.com,2013-03-10 10:56:00,
2013-03-10 07:11:00,24.4,24.2,30.33,ENE,67,0.0,-999.0,99,-99.99,,,0.00,Acu-Link.com,2013-03-10 11:11:00,
2013-03-10 07:26:00,24.3,24.1,30.34,NNW,337,0.0,-999.0,99,-99.99,,,0.00,Acu-Link.com,2013-03-10 11:26:00,
2013-03-10 07:42:00,25.2,25.0,30.34,NNE,22,0.0,-999.0,99,-99.99,,,0.00,Acu-Link.com,2013-03-10 11:42:00,
2013-03-10 07:57:00,26.8,26.6,30.34,NE,45,0.0,-999.0,99,-99.99,,,0.00,Acu-Link.com,2013-03-10 11:57:00,
2013-03-10 08:12:00,30.7,29.7,30.35,NW,315,0.0,-999.0,96,-99.99,,,0.00,Acu-Link.com,2013-03-10 12:12:00,
2013-03-10 08:28:00,35.6,32.1,30.35,North,0,0.0,-999.0,87,-99.99,,,0.00,Acu-Link.com,2013-03-10 12:28:00,
2013-03-10 08:43:00,39.2,32.9,30.35,West,270,1.1,-999.0,78,-99.99,,,0.00,Acu-Link.com,2013-03-10 12:43:00,
2013-03-10 08:58:00,37.6,32.0,30.35,North,0,0.0,-999.0,80,-99.99,,,0.00,Acu-Link.com,2013-03-10 12:58:00,
2013-03-10 09:14:00,36.3,31.6,30.35,North,0,3.2,-999.0,83,-99.99,,,0.00,Acu-Link.com,2013-03-10 13:14:00,
2013-03-10 09:29:00,36.7,32.0,30.36,NNE,22,2.7,-999.0,83,-99.99,,,0.00,Acu-Link.com,2013-03-10 13:29:00,
2013-03-10 09:44:00,37.2,31.9,30.35,NNE,22,2.7,-999.0,81,-99.99,,,0.00,Acu-Link.com,2013-03-10 13:44:00,
2013-03-10 10:00:00,37.9,32.3,30.36,NNE,22,2.7,-999.0,80,-99.99,,,0.00,Acu-Link.com,2013-03-10 14:00:00,
2013-03-10 10:15:00,38.1,32.5,30.36,ENE,67,1.7,-999.0,80,-99.99,,,0.00,Acu-Link.com,2013-03-10 14:15:00,
2013-03-10 10:30:00,39.6,32.7,30.35,NNE,22,3.2,-999.0,76,-99.99,,,0.00,Acu-Link.com,2013-03-10 14:30:00,
2013-03-10 10:45:00,42.1,33.4,30.36,NNE,22,2.7,-999.0,71,-99.99,,,0.00,Acu-Link.com,2013-03-10 14:45:00,
2013-03-10 11:01:00,41.4,33.1,30.34,North,0,2.7,-999.0,72,-99.99,,,0.00,Acu-Link.com,2013-03-10 15:01:00,
2013-03-10 11:16:00,41.7,32.6,30.35,North,0,3.7,-999.0,70,-99.99,,,0.00,Acu-Link.com,2013-03-10 15:16:00,
2013-03-10 11:31:00,42.1,32.7,30.34,NNE,22,3.2,-999.0,69,-99.99,,,0.00,Acu-Link.com,2013-03-10 15:31:00,
2013-03-10 11:47:00,43.3,33.1,30.33,East,90,1.7,-999.0,67,-99.99,,,0.00,Acu-Link.com,2013-03-10 15:47:00,
2013-03-10 12:02:00,43.3,33.8,30.33,South,180,3.7,-999.0,69,-99.99,,,0.00,Acu-Link.com,2013-03-10 16:02:00,
2013-03-10 12:17:00,41.9,33.5,30.32,South,180,3.7,-999.0,72,-99.99,,,0.00,Acu-Link.com,2013-03-10 16:17:00,
2013-03-10 12:32:00,43.2,33.7,30.32,SE,135,2.7,-999.0,69,-99.99,,,0.00,Acu-Link.com,2013-03-10 16:32:00,
2013-03-10 12:47:00,42.6,34.2,30.32,South,180,2.7,-999.0,72,-99.99,,,0.00,Acu-Link.com,2013-03-10 16:47:00,
2013-03-10 13:02:00,41.9,33.9,30.32,SSE,157,4.2,-999.0,73,-99.99,,,0.00,Acu-Link.com,2013-03-10 17:02:00,
2013-03-10 13:17:00,41.5,33.8,30.32,South,180,3.7,-999.0,74,-99.99,,,0.00,Acu-Link.com,2013-03-10 17:17:00,
2013-03-10 13:33:00,42.1,34.4,30.32,SSE,157,3.7,-999.0,74,-99.99,,,0.00,Acu-Link.com,2013-03-10 17:33:00,
2013-03-10 13:48:00,41.2,33.9,30.32,ESE,112,2.7,-999.0,75,-99.99,,,0.00,Acu-Link.com,2013-03-10 17:48:00,
2013-03-10 14:03:00,41.2,33.9,30.31,SSW,202,2.7,-999.0,75,-99.99,,,0.00,Acu-Link.com,2013-03-10 18:03:00,
2013-03-10 14:19:00,42.1,34.8,30.31,SSE,157,2.7,-999.0,75,-99.99,,,0.00,Acu-Link.com,2013-03-10 18:19:00,
2013-03-10 14:34:00,42.1,34.4,30.30,SSE,157,7.8,-999.0,74,-99.99,,,0.00,Acu-Link.com,2013-03-10 18:34:00,
2013-03-10 14:49:00,41.5,34.2,30.30,SSE,157,5.3,-999.0,75,-99.99,,,0.00,Acu-Link.com,2013-03-10 18:49:00,
2013-03-10 15:04:00,41.0,33.7,30.30,SSE,157,5.8,-999.0,75,-99.99,,,0.00,Acu-Link.com,2013-03-10 19:04:00,
2013-03-10 15:19:00,41.2,33.9,30.29,ENE,67,3.2,-999.0,75,-99.99,,,0.00,Acu-Link.com,2013-03-10 19:19:00,
2013-03-10 15:34:00,41.5,34.2,30.30,SSW,202,4.2,-999.0,75,-99.99,,,0.00,Acu-Link.com,2013-03-10 19:34:00,
2013-03-10 15:50:00,40.1,33.8,30.29,ESE,112,4.7,-999.0,78,-99.99,,,0.00,Acu-Link.com,2013-03-10 19:50:00,
2013-03-10 16:05:00,40.1,33.8,30.29,ESE,112,4.2,-999.0,78,-99.99,,,0.00,Acu-Link.com,2013-03-10 20:05:00,
2013-03-10 16:20:00,40.1,33.5,30.30,ESE,112,3.7,-999.0,77,-99.99,,,0.00,Acu-Link.com,2013-03-10 20:20:00,
2013-03-10 16:36:00,39.9,33.6,30.29,SSE,157,2.7,-999.0,78,-99.99,,,0.00,Acu-Link.com,2013-03-10 20:36:00,
2013-03-10 16:51:00,40.1,33.8,30.29,South,180,3.7,-999.0,78,-99.99,,,0.00,Acu-Link.com,2013-03-10 20:51:00,
2013-03-10 17:21:00,39.2,33.6,30.28,ESE,112,3.2,-999.0,80,-99.99,,,0.00,Acu-Link.com,2013-03-10 21:21:00,
2013-03-10 17:36:00,39.2,33.2,30.28,NNE,22,2.2,-999.0,79,-99.99,,,0.00,Acu-Link.com,2013-03-10 21:36:00,
2013-03-10 17:52:00,38.8,33.2,30.28,SSW,202,2.2,-999.0,80,-99.99,,,0.00,Acu-Link.com,2013-03-10 21:52:00,
2013-03-10 18:23:00,38.3,33.6,30.29,ESE,112,3.2,-999.0,83,-99.99,,,0.00,Acu-Link.com,2013-03-10 22:23:00,
2013-03-10 18:38:00,37.8,33.7,30.28,SSE,157,0.0,-999.0,85,-99.99,,,0.00,Acu-Link.com,2013-03-10 22:38:00,
2013-03-10 18:53:00,37.2,33.4,30.29,ESE,112,2.2,-999.0,86,-99.99,,,0.00,Acu-Link.com,2013-03-10 22:53:00,
2013-03-10 19:09:00,36.7,32.9,30.29,SSE,157,0.0,-999.0,86,-99.99,,,0.00,Acu-Link.com,2013-03-10 23:09:00,
2013-03-10 19:24:00,36.0,32.8,30.29,ESE,112,0.0,-999.0,88,-99.99,,,0.00,Acu-Link.com,2013-03-10 23:24:00,
2013-03-10 19:39:00,35.6,33.0,30.30,SSW,202,0.0,-999.0,90,-99.99,,,0.00,Acu-Link.com,2013-03-10 23:39:00,
2013-03-10 19:54:00,34.9,32.5,30.30,ESE,112,0.0,-999.0,91,-99.99,,,0.00,Acu-Link.com,2013-03-10 23:54:00,
2013-03-10 20:10:00,36.0,33.6,30.28,South,180,2.7,-999.0,91,-99.99,,,0.00,Acu-Link.com,2013-03-11 00:10:00,
2013-03-10 20:25:00,36.5,33.6,30.29,SSE,157,1.7,-999.0,89,-99.99,,,0.00,Acu-Link.com,2013-03-11 00:25:00,
2013-03-10 20:40:00,36.3,33.4,30.28,SE,135,2.2,-999.0,89,-99.99,,,0.00,Acu-Link.com,2013-03-11 00:40:00,
2013-03-10 20:56:00,36.3,33.4,30.29,SW,225,0.0,-999.0,89,-99.99,,,0.00,Acu-Link.com,2013-03-11 00:56:00,
2013-03-10 21:26:00,34.5,32.4,30.29,SW,225,1.1,-999.0,92,-99.99,,,0.00,Acu-Link.com,2013-03-11 01:26:00,
2013-03-10 21:41:00,34.0,32.2,30.28,NW,315,0.0,-999.0,93,-99.99,,,0.00,Acu-Link.com,2013-03-11 01:41:00,
2013-03-10 21:57:00,33.8,32.3,30.28,South,180,0.0,-999.0,94,-99.99,,,0.00,Acu-Link.com,2013-03-11 01:57:00,
2013-03-10 22:12:00,33.4,32.1,30.28,South,180,0.0,-999.0,95,-99.99,,,0.00,Acu-Link.com,2013-03-11 02:12:00,
2013-03-10 22:27:00,33.4,32.4,30.29,ESE,112,0.0,-999.0,96,-99.99,,,0.00,Acu-Link.com,2013-03-11 02:27:00,
2013-03-10 22:43:00,34.2,33.4,30.29,West,270,1.7,-999.0,97,-99.99,,,0.00,Acu-Link.com,2013-03-11 02:43:00,
2013-03-10 22:58:00,35.1,34.1,30.28,South,180,1.1,-999.0,96,-99.99,,,0.00,Acu-Link.com,2013-03-11 02:58:00,
2013-03-10 23:13:00,35.2,33.9,30.27,SSW,202,0.0,-999.0,95,-99.99,,,0.00,Acu-Link.com,2013-03-11 03:13:00,
2013-03-10 23:29:00,35.6,34.3,30.26,NE,45,0.0,-999.0,95,-99.99,,,0.00,Acu-Link.com,2013-03-11 03:29:00,
2013-03-10 23:44:00,36.1,34.5,30.26,South,180,0.0,-999.0,94,-99.99,,,0.00,Acu-Link.com,2013-03-11 03:44:00,